Location: Freinsheim
(49.5065°N, 8.2119°E)
Time: 12:16:47
(UTC+00:00)

Daily predictions for brighter satellites

Satellite Brightness Start Highest point End
(mag) Time Altitude Azimuth Time Altitude Azimuth Time Altitude Azimuth
ARGOS 4.5 16:46:19 10° E 16:49:53 18° NE 16:53:28 10° NNE
SL-24 R/B 4.4 16:45:37 10° SSE 16:50:11 87° ENE 16:55:18 10° NNW
Cosmos 1626 Rocket 4.1 16:46:40 10° SSE 16:50:47 39° E 16:54:56 10° NNE
Cosmos 1092 Rocket 4.5 16:46:05 10° SSE 16:51:41 38° E 16:57:15 10° NNE
Cosmos 2263 Rocket 3.9 16:47:43 10° WSW 16:52:34 28° NW 16:57:25 10° NNE
Cosmos 923 Rocket 4.2 16:47:39 10° NNW 16:53:01 82° WSW 16:58:19 10° SSE
Cosmos 1898 Rocket 4.0 16:49:05 10° S 16:53:57 40° ESE 16:58:49 10° NE
CZ-4C R/B 2.9 16:52:20 10° NNE 16:55:32 81° WNW 16:58:45 10° SSW
TELKOM 3 2.6 16:53:59 10° W 16:56:06 77° N 16:58:22 10° E
Cosmos 1680 Rocket 3.5 16:52:03 10° NNW 16:57:19 85° ENE 17:02:33 10° SSE
Meteor 2-10 Rocket 4.2 16:54:43 10° NNW 17:00:04 63° W 17:05:09 10° S
Nadezhda 4 Rocket 4.0 16:54:10 10° S 17:00:19 69° E 17:06:27 10° NNE
CZ-4B R/B 2.3 17:01:06 10° NE 17:04:01 28° E 17:06:50 10° SSE
Landsat 5 3.6 17:01:23 10° N 17:05:14 70° WNW 17:09:02 10° SSW
MOS 1 Rocket 4.0 17:01:57 10° NE 17:05:40 28° E 17:09:25 10° SSE
CZ-2D R/B 3.7 17:02:37 10° SE 17:06:13 40° ENE 17:09:48 10° N
Cosmos-2242 3.8 17:05:03 10° N 17:08:48 28° ENE 17:12:33 10° SE
NOAA 11 4.5 17:04:50 10° S 17:10:20 76° WSW 17:15:51 10° NNW
NOSS 3-1 (C) 4.2 17:04:01 10° NW 17:11:25 82° SW 17:20:03 10° SE
COSMO-SKYMED 1 3.0 17:09:02 10° NNE 17:13:08 39° E 17:17:13 10° SSE
BREEZE-M DEB (TANK) 1.6 17:12:59 10° W 17:15:18 89° SW 17:17:14 14° E
Cosmos 1937 Rocket 3.8 17:11:31 10° S 17:16:35 46° ESE 17:21:39 10° NNE
Aureole 3 3.1 17:13:35 10° NNW 17:16:41 65° W 17:19:37 10° S
Cosmos 1758 Rocket 4.3 17:13:34 10° SSE 17:17:31 32° E 17:21:31 10° NNE
Okean 1-7 Rocket 4.2 17:13:59 10° SSW 17:18:30 63° WNW 17:23:04 10° N
USA 290 2.5 17:17:53 10° NNW 17:20:57 42° ENE 17:23:59 10° SE
NOSS 2-1 (C) 2.8 17:21:03 10° SW 17:24:22 83° SE 17:27:19 14° NE
Cosmos 1833 Rocket 2.7 17:19:13 10° NNW 17:24:49 64° ENE 17:30:24 10° SE
CZ-4 R/B 4.5 17:22:06 10° SSE 17:26:11 59° ENE 17:30:17 10° N
Cosmos 2221 4.5 17:25:49 10° NNE 17:26:48 12° NE 17:26:48 12° NE
H-2A R/B 2.4 17:23:55 10° SE 17:28:41 43° ENE 17:33:37 10° N
Meteor 1-21 Rocket 4.3 17:24:35 10° SSW 17:30:07 84° W 17:35:47 10° N
NOSS 2-1 (D) 2.9 17:27:00 10° SW 17:30:18 85° NW 17:33:06 15° NE
H-2A R/B 2.6 17:26:02 10° N 17:30:24 62° WNW 17:34:37 10° SSW
Cosmos 1939 Rocket 3.1 17:26:52 10° S 17:30:55 73° WSW 17:34:58 10° NNW
Cosmos 2344 4.3 17:22:10 10° NW 17:31:15 81° NE 17:43:56 10° SE
Helios 1A Rocket 3.6 17:27:34 10° SE 17:31:16 32° ENE 17:34:58 10° N
USA 229 DEB 4.0 17:25:37 10° NW 17:32:54 82° SW 17:40:35 10° SE
USA 229 4.0 17:25:43 10° NW 17:33:00 82° SW 17:40:42 10° SE
Cosmos 389 Rocket 4.2 17:30:35 10° NNE 17:32:01 16° NE 17:32:01 16° NE
SeaSat 1 4.0 17:29:31 10° NNE 17:33:54 33° NW 17:38:16 10° WSW
Cosmos 1602 Rocket 3.5 17:29:53 10° S 17:34:14 80° E 17:38:40 10° NNE
Cosmos 44 3.7 17:29:34 10° SW 17:34:26 68° NW 17:39:31 11° NE
CZ-3B R/B 2.0 17:31:56 10° WNW 17:34:27 77° SSW 17:41:36 10° SE
CSL-04 DEB 4.3 17:30:55 10° NNE 17:35:05 82° ESE 17:39:06 10° SSW
Cosmos 2026 Rocket 4.0 17:29:28 10° S 17:35:31 62° E 17:41:42 10° NNE
Feng Yun 1-1 Rocket 4.3 17:30:45 10° SSE 17:36:15 87° WSW 17:41:57 10° NNW
SJ 16-02 2.8 17:33:28 10° SW 17:37:33 36° WNW 17:41:39 10° N
YAOGAN 1 2.7 17:36:03 10° SE 17:40:14 50° ENE 17:44:26 10° N
Cosmos 990 Rocket 4.2 17:35:45 10° SSW 17:40:56 76° WNW 17:46:09 10° NNE
Cosmos 1689 Rocket 3.2 17:41:35 24° ESE 17:41:35 24° ESE 17:43:28 10° SSE
Cosmos 1553 Rocket 4.1 17:35:15 10° N 17:41:32 53° ENE 17:47:41 10° SSE
SJ-11-01 4.5 17:37:35 10° SE 17:42:04 47° ENE 17:46:33 10° N
Aureole 3 Rocket 2.4 17:39:11 10° N 17:42:24 79° E 17:46:21 10° SSE
Cosmos 1844 Rocket 3.8 17:37:32 10° WSW 17:42:53 42° NW 17:48:15 10° NNE
COSMOS 2406 3.3 17:38:23 10° NNW 17:44:12 85° WSW 17:49:58 10° SSE
Cosmos 2082 Rocket 2.3 17:39:00 10° NNW 17:44:38 53° NE 17:50:11 10° SE
HJ-1C 4.0 17:47:04 28° E 17:47:53 32° ENE 17:50:56 10° N
Cosmos 1703 3.8 17:44:28 10° SSW 17:48:17 60° WNW 17:52:09 10° N
Meteor 1-27 4.2 17:42:53 10° N 17:48:25 55° ENE 17:53:51 10° SSE
NOSS 3-1 (A) 4.2 17:41:08 10° NW 17:48:33 78° SW 17:57:12 10° SSE
Cosmos 1825 Rocket 3.7 17:45:05 10° SSE 17:49:18 48° E 17:53:34 10° NNE
X-37B 2.3 17:46:53 10° WSW 17:49:40 27° SSW 17:51:36 15° SE
IRS-1C Rocket 4.1 17:44:30 10° SSE 17:49:46 89° WSW 17:55:04 10° NNW
deb Kosmos-1763 4.3 17:47:55 10° NNW 17:51:23 43° ENE 17:52:52 27° ESE
Cosmos 1812 Rocket 4.1 17:47:16 10° NNW 17:51:35 61° W 17:55:52 10° S
ISS -3.5 17:49:24 10° WNW 17:52:45 57° N 17:53:50 37° ENE
Okean O Rocket 3.9 17:52:06 10° SSW 17:55:53 27° W 17:59:41 10° NW
ATLAS 2AS CENTAUR R/B 4.2 17:49:38 10° WNW 17:56:12 28° N 18:00:54 16° NE
NOAA 15 4.5 17:52:02 10° SSE 17:57:17 77° ENE 18:02:36 10° NNW
ATLAS 5 CENTAUR R/B 3.8 17:55:13 10° NW 17:58:19 17° N 18:00:57 12° NNE
Iridium 4 Rocket 3.5 17:54:24 10° N 17:59:52 86° W 18:04:48 10° S
CZ-4 R/B 1.3 17:55:52 10° SSE 17:59:54 90° W 18:03:53 10° NNW
SKYMED 2 3.8 17:56:58 10° N 18:01:19 71° WNW 18:05:37 10° SSW
ERS-2 2.0 17:58:38 17° NNE 18:01:20 67° ESE 18:04:56 10° S
CSL-04 Rocket 3.7 17:58:57 10° SE 18:04:18 58° ENE 18:09:43 10° N
Okean-O 2.6 18:02:57 10° SSE 18:07:23 87° WSW 18:11:52 10° NNW
S3M 3.9 18:02:01 10° N 18:08:03 57° ENE 18:14:05 10° SSE
CZ-4C R/B 4.0 18:03:37 10° NW 18:08:39 25° N 18:11:46 18° NE
USA 234 3.8 18:05:52 24° ENE 18:09:32 47° N 18:15:43 10° WNW
Ariane Rocket 4.2 18:11:25 24° NE 18:11:25 24° NE 18:14:28 10° N
Cosmos 1340 4.0 18:08:21 10° SW 18:11:54 40° WNW 18:15:29 10° N
Cosmos 1346 Rocket 2.6 18:08:23 10° S 18:12:18 81° ESE 18:15:12 18° NNE
Cosmos 1655 Rocket 4.1 18:06:48 10° SSE 18:12:42 47° E 18:18:37 10° NNE
Cosmos 2278 Rocket 2.1 18:07:12 10° SSW 18:12:53 79° ESE 18:17:11 18° NNE
Cosmos 1953 Rocket 3.5 18:11:30 10° S 18:15:46 59° E 18:17:58 27° NNE
CZ-2C R/B 4.1 18:10:42 10° S 18:16:04 53° W 18:21:42 10° NNW
SWARM C 4.4 18:15:04 10° S 18:18:10 73° SE 18:18:10 73° SE
USA 281 4.5 18:17:58 20° NE 18:18:25 21° NE 18:23:01 10° N
SWARM A 4.0 18:15:10 10° S 18:18:29 83° E 18:18:52 67° NNE
SAR-Lupe-4 3.4 18:17:50 34° NNE 18:19:17 89° E 18:22:51 10° SSW
Cosmos 2292 Rocket 3.4 18:15:56 10° S 18:20:34 55° E 18:20:41 55° E
Cosmos 44 Rocket 3.6 18:18:24 10° S 18:23:04 43° ESE 18:23:19 43° ESE
NOSS 2-1 (E) 4.4 18:22:38 10° WSW 18:25:42 33° NW 18:26:47 27° N
DMSP B5D1-3 4.4 18:22:53 10° NNE 18:28:00 76° ESE 18:33:07 10° S
ARGOS 3.1 18:24:06 10° SSE 18:29:28 87° WSW 18:34:55 10° NNW
Meteor 2-2 Rocket 4.3 18:23:42 10° N 18:29:37 59° ENE 18:34:20 16° SSE
Cosmos 1869 3.1 18:26:14 10° N 18:30:09 79° E 18:30:11 79° E
NOSS 2-2 (D) 4.3 18:26:24 10° NW 18:31:29 61° NE 18:33:29 42° ESE
PSLV R/B 4.3 18:28:24 10° N 18:32:36 65° WNW 18:36:45 10° SSW
CZ-4B R/B 3.9 18:33:32 10° NNW 18:36:05 21° WNW 18:38:33 10° WSW
Cosmos 372 Rocket 4.1 18:31:18 10° SSW 18:36:30 76° WNW 18:39:58 22° NNE
Cosmos 468 4.5 18:32:14 10° NNW 18:37:32 85° WSW 18:41:13 20° SSE
CZ-2C R/B 2.7 18:33:46 20° NNE 18:37:40 60° E 18:43:13 10° S
Cosmos 494 Rocket 3.8 18:36:20 10° NNW 18:41:31 75° ENE 18:42:29 58° SE
Cosmos 2150 Rocket 3.8 18:40:34 10° SSW 18:45:41 70° ESE 18:45:59 68° E
Cosmos 1048 Rocket 4.1 18:41:22 10° NNW 18:46:30 74° WSW 18:49:36 24° S
Cosmos 909 Rocket 4.3 18:53:26 10° NNW 18:59:45 54° NE 19:00:09 53° ENE
SL-08 RB Rocket 4.1 18:59:19 32° SSW 19:01:15 59° W 19:05:42 10° NNW
Cosmos 2221 4.2 19:01:45 10° NNW 19:03:42 26° NNW 19:03:42 26° NNW
H-2A R/B 3.8 19:03:48 10° SSW 19:08:16 31° W 19:12:52 10° NNW
Cosmos 1125 Rocket 4.2 19:05:08 10° SSW 19:08:41 44° SSW 19:08:41 44° SSW
Cosmos 2298 Rocket 4.2 19:07:47 10° SSW 19:13:04 69° WNW 19:13:35 64° NNW
Cosmos 2266 Rocket 4.0 19:08:40 10° SSW 19:14:54 78° W 19:21:04 10° N
NOSS 2-2 (C) 4.4 19:14:15 10° NW 19:19:36 77° SW 19:20:07 72° S
Cosmos 2082 Rocket 3.9 19:23:32 10° NW 19:28:27 30° WSW 19:33:19 10° SSW
ISS -0.5 19:26:18 10° WNW 19:26:49 14° WNW 19:26:49 14° WNW
ATLAS 5 CENTAUR R/B 4.2 19:40:50 10° NNW 19:42:29 17° NNW 19:42:29 17° NNW
ATLAS 2AS CENTAUR R/B 3.8 19:42:22 10° NW 19:48:21 35° N 19:48:21 35° N
USA 234 3.7 19:53:13 55° NNW 19:53:13 55° NNW 19:58:31 10° WNW
Cosmos 2278 Rocket 4.1 19:53:01 10° W 19:57:38 25° NW 19:59:05 22° NNW
CZ-4C R/B 3.8 19:52:37 10° NW 19:56:58 35° N 19:56:58 35° N
USA 281 4.3 20:04:50 34° NNW 20:04:50 34° NNW 20:08:25 10° NNW
